Regional Weather Roundup
Issued by NWS

Home | Current Version | Previous Version | Graphics & Text | Print | Product List | Glossary On
Versions: 1 2 3 4 5 6 7 8 9 10 11 12 13 14 15 16 17 18 19 20 21 22 23 24 25 26 27 28 29 30 31 32 33 34 35 36 37 38 39 40 41 42 43 44 45 46 47 48 49 50
000
ASUS43 KFSD 300502
RWRSD

WEATHER ROUNDUP FOR SOUTH DAKOTA
NATIONAL WEATHER SERVICE SIOUX FALLS SD
1200 AM CDT TUE SEP 30 2014

NOTE: "FAIR" INDICATES FEW OR NO CLOUDS BELOW 12,000 FEET WITH NO
SIGNIFICANT WEATHER AND/OR OBSTRUCTIONS TO VISIBILITY.


SDZ001>005-009-010-012>017-300600-
NORTHWEST AND NORTH CENTRAL SOUTH DAKOTA

CITY           SKY/WX    TMP DP  RH WIND       PRES   REMARKS
BUFFALO          N/A     53  52  96 E14       29.79F
FAITH            N/A     55  54  96 E13       29.86F
MOBRIDGE       CLOUDY    55  50  83 E7        29.88F
$$

SDZ012>016-024>037-041>051-057-063-072>074-300600-
SOUTHWEST AND SOUTH CENTRAL SOUTH DAKOTA

CITY           SKY/WX    TMP DP  RH WIND       PRES   REMARKS
RAPID CTY ARPT HVY RAIN  52  51  97 N9        29.81F FOG
PIERRE         CLOUDY    62  56  80 SE24G32   29.83F
CUSTER         HVY RAIN  51  49  92 NE9       29.85F FOG
PHILIP         CLOUDY    60  58  92 NE15      29.78F
PINE RIDGE     TSTM      58  57  97 NE12      29.72F FOG
WINNER         FAIR      65  60  84 E20       29.83F
$$

SDZ004>011-016>023-039-040-300600-
NORTHEAST SOUTH DAKOTA

CITY           SKY/WX    TMP DP  RH WIND       PRES   REMARKS
ABERDEEN       PTCLDY    53  49  86 E10       29.98F
WATERTOWN      PTCLDY    50  45  83 SE8       30.01F
SISSETON         N/A     50  47  89 SE9       30.03S
$$

SDZ017-020-022-023-036>040-048>070-300600-
SOUTHEAST SOUTH DAKOTA

CITY           SKY/WX    TMP DP  RH WIND       PRES   REMARKS
SIOUX FALLS    MOCLDY    55  50  83 E13       30.00S
HURON          PTCLDY    56  50  80 SE16      29.94F
CHAMBERLAIN    PTCLDY    59  56  91 E15G22    29.88F
MITCHELL       PTCLDY    59  55  87 E10       29.95S
YANKTON        CLOUDY    61  57  88 E10       29.96S
$$

ABBREVIATIONS USED IN REMARKS
   TC - TEMPERATURE IN CELSIUS
  WCI - WIND CHILL INDEX
   HX - HEAT INDEX
  VSB - VISIBILITY



USA.gov is the U.S. government's official web portal to all federal, state and local government web resources and services.